Regional Weather Roundup
Issued by NWS

Home | Current Version | Previous Version | Text Only | Print | Product List | Glossary Off
Versions: 1 2 3 4 5 6 7 8 9 10 11 12 13 14 15 16 17 18 19 20 21 22 23 24 25 26 27 28 29 30 31 32 33 34 35 36 37 38 39 40 41 42 43 44 45 46 47 48 49 50

000
ASUS43 KDTX 290510
RWRMI
MICHIGAN HOURLY REGIONAL WEATHER ROUNDUP
NATIONAL WEATHER SERVICE DETROIT/PONTIAC MI
1200 AM EST MON DEC 29 2014

NOTE: "FAIR" INDICATES FEW OR NO CLOUDS BELOW 12,000 FEET WITH NO
SIGNIFICANT WEATHER AND/OR OBSTRUCTION TO VISIBILITY.

MIZ047>049-052>055-059>063-066>070-074>076-081>083-290600-
SOUTHEAST LOWER MICHIGAN

CITY           SKY/WX    TMP DP  RH WIND       PRES   REMARKS
ADRIAN         CLEAR     26  20  77 NW3       30.21S
ALMA           CLOUDY    27  19  70 W5        30.21S WCI  22
ANN ARBOR      CLEAR     27  20  75 NW6       30.19S WCI  20
BAD AXE        CLOUDY    29  19  66 NW10      30.18R WCI  19
CARO           CLOUDY    29  21  71 W6        30.19R WCI  23
DETROIT CITY   CLEAR     30  21  69 NW5       30.19R WCI  25
DETROIT        CLEAR     27  20  75 W5        30.20R WCI  22
FLINT          CLOUDY    30  19  63 NW13      30.20S WCI  20
GROSSE ILE     CLEAR     28  21  74 NW5       30.19S WCI  23
HILLSDALE      CLEAR     25  21  85 NW6       30.19R WCI  18
HOWELL         CLOUDY    28  21  76 NW8       30.19S WCI  19

CITY           SKY/WX    TMP DP  RH WIND       PRES   REMARKS
JACKSON        MOCLDY    25  20  81 NW3       30.20R
LAMBERTVILLE   CLEAR     28  23  80 CALM      30.21R
LANSING        CLOUDY    28  17  63 NW10      30.22R WCI  19
LAPEER         CLOUDY    29  20  71 NW7       30.19R WCI  21
MASON          CLOUDY    28  19  70 NW9       30.20S WCI  19
MONROE         CLEAR     27  21  80 CALM      30.19S
MT. CLEMENS    CLEAR     28  22  79 NW8       30.17R WCI  19
PONTIAC        PTCLDY    25  20  81 NW6       30.17R WCI  18
PORT HOPE        N/A     30  15  53 NW9G18    30.16R WCI  22
PORT HURON     CLEAR     27  23  86 CALM      30.19R
TRI CITIES     CLOUDY    29  15  56 NW10      30.21R WCI  20
TROY           CLEAR     31  20  65 NW7       30.20S WCI  24
SAGINAW HB     CLOUDY    30  19  64 W15       30.20R WCI  19
$$
MIZ043>046-050>051-056>058-064>065-071>073-077>080-290600-
SOUTHWEST LOWER MICHIGAN

CITY           SKY/WX    TMP DP  RH WIND       PRES   REMARKS
BATTLE CREEK   CLOUDY    31  20  63 N5        30.21R WCI  26
BENTON HARBOR  CLOUDY    27  23  85 CALM      30.23R
BIG RAPIDS     CLOUDY    27  18  70 NW8       30.19S WCI  18
COLDWATER      CLOUDY    25  22  89 CALM      30.21R
FREMONT        CLOUDY    28  20  72 N6        30.22R WCI  21
HOLLAND        CLOUDY    32  22  66 NE5       30.23R WCI  27
GRAND RAPIDS   CLOUDY    29  19  66 NW7       30.22R WCI  22
IONIA          CLOUDY    29  19  66 NW3       30.20R
KALAMAZOO      CLOUDY    29  21  72 W3        30.21S
LUDINGTON      CLOUDY    27  16  63 NW8G17    30.24R WCI  18
MARSHALL       CLOUDY    28  21  76 CALM      30.20S
MOUNT PLEASANT CLOUDY    28  15  59 CALM      30.20R
MUSKEGON       CLOUDY    31  19  61 N5        30.23S WCI  26
SOUTH HAVEN    CLOUDY    33  23  65 NW5       30.22S WCI  29
$$
MIZ016>042-290600-
NORTHERN LOWER MICHIGAN

CITY           SKY/WX    TMP DP  RH WIND       PRES   REMARKS
ALPENA         CLOUDY    22  13  68 NW8       30.19R WCI  12
BEAVER ISLAND  CLOUDY    19  13  77 W8        30.23R WCI   9
BELLAIRE       CLOUDY    24  13  63 NW9       30.23R WCI  14
CADILLAC       FLURRIES  23  17  78 NW6       30.16S WCI  15
CHARLEVOIX     MOCLDY    22  10  61 NW8G17    30.25R WCI  12
FRANKFORT      FLURRIES  23  17  76 N8G16     30.24R WCI  14
GAYLORD        CLOUDY    19  11  70 VRB7      30.16R WCI  10
GRAYLING       FLURRIES  21  17  83 N9        30.18R WCI  11
HARBOR SPRINGS CLOUDY    21  11  65 NW5       30.21R WCI  14
HOUGHTON LAKE  CLOUDY    23  14  68 W10       30.17R WCI  12
MANISTEE       CLOUDY    27  10  50 NW10      30.24R WCI  17
OSCODA         CLOUDY    26  16  66 W5        30.18R WCI  20
PELLSTON       CLOUDY    21  10  62 NW10      30.21R WCI  10
ROGERS CITY    PTCLDY    20  13  72 NW8       30.20R WCI  11
TRAVERSE CITY  CLOUDY    24  15  68 NW13      30.22R WCI  12
$$
MIZ007>008-015-290600-
EASTERN UPPER MICHIGAN

CITY           SKY/WX    TMP DP  RH WIND       PRES   REMARKS
KINROSS        CLOUDY    16  16 100 W9        30.17R WCI   4
MACKINAC ISLAN PTCLDY    19  12  74 W9        30.19S WCI   8
NEWBERRY       PTCLDY    11  10  95 W9        30.18R WCI  -1
S. S. MARIE    LGT SNOW  20  14  77 W13       30.14F WCI   7
MUNISING         N/A     18   9  68 W6G17     30.22R WCI  10
$$
MIZ004>006-011>014-085-290600-
CENTRAL UPPER MICHIGAN

CITY           SKY/WX    TMP DP  RH WIND       PRES   REMARKS
MANISTIQUE     CLEAR      9   5  85 W8        30.23R WCI  -3
ESCANABA       CLEAR      7   1  78 W5        30.27R WCI  -2
MENOMINEE      CLEAR     12   7  79 NW3       30.29R
SAWYER-GWINN   FLURRIES   0  -4  84 CALM      30.21R
$$
MIZ001>003-009>011-084-290600-
WESTERN UPPER MICHIGAN

CITY           SKY/WX    TMP DP  RH WIND       PRES   REMARKS
IRON MOUNTAIN    N/A      4  -1  80 NW8       30.23R WCI  -9
HOUGHTON       LGT SNOW  12   5  73 NW16      30.22R WCI  -5
COPPER HARBOR    N/A     18  12  77 N24       30.23R WCI   0
IRONWOOD       CLOUDY     7   3  85 W10       30.25R WCI  -8
$$

ABBREVIATIONS USED IN REMARKS
   TC - TEMPERATURE IN CELSIUS
  WCI - WIND CHILL INDEX
   HX - HEAT INDEX
  VSB - VISIBILITY



USA.gov is the U.S. government's official web portal to all federal, state and local government web resources and services.